This demonstration page uses our WeatherBlox Daily Observations layout. Learn more.

Left ArrowRight Arrow

Hourly Observations for March 20, 2020

Temp ( °F °C ) Dew Point ( °F °C ) Humidity (%) Winds ( mph kmh ) Pressure ( in mb ) Visibility ( mi km ) Precip ( " mm )
12:51 am 00:51 Cloudy 45 7.2 39 3.9 80 80 N 3 6 30.12 1020 10 16 0.00 0.00
1:51 am 01:51 Mostly Clear 42 5.6 38 3.3 85 85 N 3 6 30.12 1020 10 16 0.00 0.00
2:51 am 02:51 Clear 40 4.4 37 2.8 89 89 ESE 5 7 30.11 1020 10 16 0.00 0.00
3:51 am 03:51 Clear 38 3.3 35 1.7 89 89 Calm 30.11 1020 10 16 0.00 0.00
4:51 am 04:51 Clear 37 2.8 35 1.7 93 93 Calm 30.13 1020 10 16 0.00 0.00
5:51 am 05:51 Clear 36 2.2 34 1.1 93 93 Calm 30.15 1021 10 16 0.00 0.00
6:51 am 06:51 Sunny 37 2.8 36 2.2 96 96 E 5 7 30.18 1022 10 16 0.00 0.00
7:51 am 07:51 Sunny 45 7.2 38 3.3 77 77 ESE 7 11 30.18 1022 10 16 0.00 0.00
8:51 am 08:51 Sunny 51 10.6 38 3.3 61 61 E 7 11 30.19 1022 10 16 0.00 0.00
9:51 am 09:51 Sunny 55 12.8 39 3.9 55 55 SE 9 15 30.18 1022 10 16 0.00 0.00
10:51 am 10:51 Sunny 59 15 42 5.6 54 54 ESE 9 15 30.16 1021 10 16 0.00 0.00
11:51 am 11:51 Sunny 63 17.2 40 4.4 43 43 SE 12 19 30.13 1020 10 16 0.00 0.00
12:51 pm 12:51 Sunny 65 18.3 38 3.3 37 37 ESE 8 13 30.10 1019 10 16 0.00 0.00
1:51 pm 13:51 Sunny 68 20 34 1.1 28 28 E 7 11 30.07 1018 10 16 0.00 0.00
2:51 pm 14:51 Sunny 68 20 34 1.1 28 28 VRB 6 9 30.05 1018 10 16 0.00 0.00
3:51 pm 15:51 Sunny 69 20.6 36 2.2 30 30 VRB 7 11 30.03 1017 10 16 0.00 0.00
4:51 pm 16:51 Sunny 69 20.6 30 -1.1 23 23 W 6 9 30.03 1017 10 16 0.00 0.00
5:51 pm 17:51 Sunny 67 19.4 36 2.2 32 32 NNW 6 9 30.03 1017 10 16 0.00 0.00
6:51 pm 18:51 Clear 61 16.1 41 5 48 48 NNW 5 7 30.04 1017 10 16 0.00 0.00
7:51 pm 19:51 Clear 59 15 42 5.6 54 54 W 9 15 30.05 1018 10 16 0.00 0.00
8:51 pm 20:51 Clear 57 13.9 43 6.1 60 60 W 9 15 30.06 1018 10 16 0.00 0.00
9:51 pm 21:51 Clear 54 12.2 44 6.7 69 69 NNW 7 11 30.05 1018 10 16 0.00 0.00
10:51 pm 22:51 Clear 53 11.7 44 6.7 72 72 NNE 5 7 30.05 1018 10 16 0.00 0.00
11:51 pm 23:51 Clear 51 10.6 45 7.2 80 80 Calm 30.04 1017 10 16 0.00 0.00

Powered by AerisWeather